FFT1027 KABQ-KSAN

Flight info

Callsign FFT1027
Flight time 1h 45m
Altitude 34000
Route RDRNR3 ZUN J6 DRK J96 PKE LUCKI1
Aircraft A320/M-SDE2E3FGHIJ1RWXY/LB1

Departure

Time 2026-05-04 00:41
Airport Albuquerque International Sunport (KABQ)

Arrival

Time 2026-05-04 02:27
Airport San Diego International Airport (KSAN)
Time Latitude Longitude Altitude Speed Heading
2026-05-04 00:11 35.04784 -106.61477 5320 ft 0 kts 184°
2026-05-04 00:12 35.04784 -106.61478 5337 ft 0 kts 184°
2026-05-04 00:29 35.04788 -106.61477 5337 ft 1 kts 184°
2026-05-04 00:29 35.04796 -106.61477 5335 ft 1 kts 184°
2026-05-04 00:29 35.04803 -106.61476 5335 ft 1 kts 184°
2026-05-04 00:30 35.04811 -106.61475 5335 ft 1 kts 183°
2026-05-04 00:30 35.04819 -106.61475 5335 ft 1 kts 180°
2026-05-04 00:30 35.04827 -106.61475 5337 ft 1 kts 165°
2026-05-04 00:30 35.04834 -106.61478 5335 ft 1 kts 150°
2026-05-04 00:31 35.04841 -106.61482 5334 ft 1 kts 149°
2026-05-04 00:31 35.04847 -106.61487 5335 ft 0 kts 149°
2026-05-04 00:35 35.04844 -106.61479 5334 ft 4 kts 120°
2026-05-04 00:35 35.04837 -106.61435 5332 ft 6 kts 95°
2026-05-04 00:36 35.04835 -106.61379 5336 ft 9 kts 90°
2026-05-04 00:36 35.04784 -106.61309 5335 ft 13 kts 176°
2026-05-04 00:36 35.04652 -106.61315 5335 ft 20 kts 188°
2026-05-04 00:36 35.04556 -106.61436 5329 ft 23 kts 264°
2026-05-04 00:37 35.04557 -106.61637 5327 ft 24 kts 270°
2026-05-04 00:37 35.04557 -106.61840 5326 ft 24 kts 271°
2026-05-04 00:37 35.04559 -106.62043 5322 ft 22 kts 271°
2026-05-04 00:37 35.04551 -106.62113 5319 ft 7 kts 243°
2026-05-04 00:38 35.04549 -106.62117 5316 ft 0 kts 237°
2026-05-04 00:38 35.04547 -106.62120 5317 ft 2 kts 232°
2026-05-04 00:39 35.04523 -106.62135 5320 ft 6 kts 196°
2026-05-04 00:39 35.04473 -106.62137 5321 ft 9 kts 168°
2026-05-04 00:39 35.04437 -106.62066 5320 ft 13 kts 96°
2026-05-04 00:39 35.04435 -106.62025 5324 ft 0 kts 92°
2026-05-04 00:40 35.04434 -106.61958 5325 ft 31 kts 89°
2026-05-04 00:40 35.04431 -106.61442 5321 ft 89 kts 90°
2026-05-04 00:41 35.04414 -106.60488 5337 ft 133 kts 93°
2026-05-04 00:41 35.04427 -106.59231 5456 ft 156 kts 92°
2026-05-04 00:41 35.04435 -106.57862 5800 ft 165 kts 95°
2026-05-04 00:41 35.04398 -106.56427 6265 ft 173 kts 90°
2026-05-04 00:42 35.04510 -106.54938 6617 ft 180 kts 86°
2026-05-04 00:42 35.04657 -106.53398 6990 ft 187 kts 88°
2026-05-04 00:42 35.04780 -106.51709 7187 ft 218 kts 89°
2026-05-04 00:42 35.04880 -106.49754 7716 ft 239 kts 90°
2026-05-04 00:43 35.04956 -106.47620 8308 ft 265 kts 89°
2026-05-04 00:43 35.05046 -106.45272 8808 ft 289 kts 89°
2026-05-04 00:43 35.05085 -106.42698 9000 ft 321 kts 98°
2026-05-04 00:43 35.04389 -106.40018 9220 ft 339 kts 123°
2026-05-04 00:44 35.02845 -106.37924 10303 ft 325 kts 148°
2026-05-04 00:44 35.00872 -106.36836 11682 ft 301 kts 172°
2026-05-04 00:44 34.98858 -106.36816 12983 ft 282 kts 197°
2026-05-04 00:44 34.97070 -106.37759 13743 ft 287 kts 219°
2026-05-04 00:45 34.95697 -106.39605 13992 ft 305 kts 243°
2026-05-04 00:45 34.95049 -106.42134 14258 ft 326 kts 265°
2026-05-04 00:45 34.95201 -106.44961 14719 ft 342 kts 278°
2026-05-04 00:45 34.95535 -106.47813 15581 ft 346 kts 278°
2026-05-04 00:46 34.95886 -106.50728 16459 ft 350 kts 278°
2026-05-04 00:46 34.96249 -106.53674 17343 ft 354 kts 278°
2026-05-04 00:46 34.96622 -106.56663 18174 ft 358 kts 278°
2026-05-04 00:46 34.97005 -106.59676 18966 ft 360 kts 278°
2026-05-04 00:47 34.97391 -106.62720 19627 ft 368 kts 278°
2026-05-04 00:47 34.97785 -106.65827 20321 ft 370 kts 278°
2026-05-04 00:47 34.98173 -106.68875 21442 ft 362 kts 278°
2026-05-04 00:47 34.98437 -106.71942 22190 ft 364 kts 271°
2026-05-04 00:48 34.98428 -106.75043 22880 ft 366 kts 269°
2026-05-04 00:48 34.98350 -106.78159 23553 ft 369 kts 268°
2026-05-04 00:48 34.98288 -106.81292 24163 ft 370 kts 269°
2026-05-04 00:48 34.98256 -106.84422 24797 ft 369 kts 270°
2026-05-04 00:49 34.98246 -106.87550 25386 ft 369 kts 270°
2026-05-04 00:49 34.98246 -106.90688 25907 ft 369 kts 270°
2026-05-04 00:49 34.98251 -106.93821 26379 ft 371 kts 270°
2026-05-04 00:49 34.98256 -106.96970 26856 ft 371 kts 270°
2026-05-04 00:50 34.98260 -107.00111 27330 ft 371 kts 270°
2026-05-04 00:50 34.98263 -107.03263 27773 ft 372 kts 270°
2026-05-04 00:50 34.98265 -107.06429 28205 ft 373 kts 270°
2026-05-04 00:50 34.98265 -107.09593 28598 ft 374 kts 270°
2026-05-04 00:51 34.98266 -107.12764 29008 ft 374 kts 270°
2026-05-04 00:51 34.98265 -107.15945 29379 ft 376 kts 270°
2026-05-04 00:51 34.98264 -107.19133 29760 ft 376 kts 270°
2026-05-04 00:51 34.98261 -107.22287 30112 ft 377 kts 270°
2026-05-04 00:52 34.98259 -107.25490 30413 ft 379 kts 270°
2026-05-04 00:52 34.98255 -107.28717 30718 ft 381 kts 270°
2026-05-04 00:52 34.98250 -107.31955 31037 ft 382 kts 270°
2026-05-04 00:52 34.98244 -107.35197 31416 ft 381 kts 270°
2026-05-04 00:53 34.98237 -107.38411 31869 ft 379 kts 270°
2026-05-04 00:53 34.98229 -107.41623 32242 ft 378 kts 270°
2026-05-04 00:53 34.98221 -107.44821 32634 ft 377 kts 270°
2026-05-04 00:53 34.98212 -107.48007 33028 ft 375 kts 270°
2026-05-04 00:54 34.98202 -107.51188 33409 ft 374 kts 270°
2026-05-04 00:54 34.98192 -107.54354 33711 ft 374 kts 270°
2026-05-04 00:54 34.98181 -107.57525 33903 ft 372 kts 270°
2026-05-04 00:55 34.98155 -107.63803 33944 ft 370 kts 270°
2026-05-04 00:55 34.98127 -107.70085 33978 ft 370 kts 270°
2026-05-04 00:56 34.98096 -107.76370 34000 ft 371 kts 270°
2026-05-04 00:56 34.98061 -107.82661 34018 ft 371 kts 270°
2026-05-04 00:57 34.98024 -107.88970 34024 ft 372 kts 270°
2026-05-04 00:57 34.97982 -107.95282 34023 ft 373 kts 270°
2026-05-04 00:58 34.97938 -108.01566 34014 ft 373 kts 270°
2026-05-04 00:58 34.97891 -108.07896 33991 ft 373 kts 270°
2026-05-04 00:59 34.97840 -108.14230 33964 ft 374 kts 270°
2026-05-04 00:59 34.97785 -108.20581 33931 ft 374 kts 270°
2026-05-04 01:00 34.97766 -108.22684 33919 ft 375 kts 270°
2026-05-04 01:00 34.97674 -108.32482 33885 ft 375 kts 270°
2026-05-04 01:01 34.97610 -108.38811 33880 ft 375 kts 270°
2026-05-04 01:01 34.97542 -108.45180 33880 ft 376 kts 270°
2026-05-04 01:02 34.97471 -108.51548 33875 ft 376 kts 270°
2026-05-04 01:02 34.97396 -108.57924 33872 ft 376 kts 270°
2026-05-04 01:03 34.97320 -108.64287 33864 ft 376 kts 270°
2026-05-04 01:03 34.97239 -108.70659 33857 ft 376 kts 270°
2026-05-04 01:04 34.97155 -108.77031 33852 ft 375 kts 270°
2026-05-04 01:04 34.97067 -108.83365 33843 ft 376 kts 270°
2026-05-04 01:05 34.96976 -108.89743 33844 ft 376 kts 270°
2026-05-04 01:05 34.96882 -108.96116 33847 ft 376 kts 269°
2026-05-04 01:06 34.96785 -109.02487 33839 ft 370 kts 269°
2026-05-04 01:06 34.96736 -109.05560 33839 ft 354 kts 270°
2026-05-04 01:06 34.96689 -109.08510 33839 ft 344 kts 270°
2026-05-04 01:07 34.96594 -109.14454 33835 ft 355 kts 269°
2026-05-04 01:07 34.96232 -109.20443 33842 ft 353 kts 266°
2026-05-04 01:08 34.95847 -109.26413 33845 ft 354 kts 266°
2026-05-04 01:08 34.95458 -109.32380 33849 ft 353 kts 266°
2026-05-04 01:09 34.95060 -109.38352 33842 ft 353 kts 266°
2026-05-04 01:09 34.94660 -109.44285 33845 ft 353 kts 266°
2026-05-04 01:10 34.94254 -109.50259 33842 ft 354 kts 266°
2026-05-04 01:10 34.93844 -109.56245 33848 ft 354 kts 266°
2026-05-04 01:11 34.93432 -109.62232 33841 ft 354 kts 266°
2026-05-04 01:11 34.93017 -109.68220 33840 ft 354 kts 266°
2026-05-04 01:12 34.92598 -109.74205 33839 ft 354 kts 266°
2026-05-04 01:12 34.92178 -109.80180 33830 ft 354 kts 266°
2026-05-04 01:13 34.91755 -109.86145 33828 ft 353 kts 266°
2026-05-04 01:13 34.91330 -109.92093 33818 ft 352 kts 266°
2026-05-04 01:14 34.90906 -109.97991 33810 ft 351 kts 266°
2026-05-04 01:14 34.90477 -110.03923 33810 ft 351 kts 266°
2026-05-04 01:15 34.90046 -110.09842 33804 ft 350 kts 266°
2026-05-04 01:15 34.89612 -110.15749 33809 ft 350 kts 266°
2026-05-04 01:16 34.89176 -110.21661 33804 ft 350 kts 266°
2026-05-04 01:16 34.88738 -110.27553 33811 ft 349 kts 265°
2026-05-04 01:17 34.88298 -110.33437 33821 ft 349 kts 265°
2026-05-04 01:17 34.87854 -110.39329 33840 ft 348 kts 265°
2026-05-04 01:18 34.87411 -110.45167 33865 ft 348 kts 265°
2026-05-04 01:18 34.86964 -110.51041 33888 ft 348 kts 265°
2026-05-04 01:19 34.86511 -110.56915 33904 ft 348 kts 265°
2026-05-04 01:19 34.86056 -110.62791 33923 ft 348 kts 265°
2026-05-04 01:20 34.85600 -110.68672 33930 ft 349 kts 265°
2026-05-04 01:20 34.85142 -110.74516 33933 ft 349 kts 265°
2026-05-04 01:21 34.84679 -110.80408 33931 ft 350 kts 265°
2026-05-04 01:21 34.84210 -110.86312 33922 ft 350 kts 265°
2026-05-04 01:22 34.83739 -110.92220 33913 ft 351 kts 265°
2026-05-04 01:22 34.83264 -110.98138 33898 ft 351 kts 265°
2026-05-04 01:23 34.82786 -111.04052 33889 ft 351 kts 265°
2026-05-04 01:23 34.82306 -111.09960 33880 ft 351 kts 265°
2026-05-04 01:24 34.81824 -111.15857 33890 ft 350 kts 265°
2026-05-04 01:24 34.81344 -111.21703 33894 ft 349 kts 265°
2026-05-04 01:25 34.80858 -111.27576 33898 ft 348 kts 265°
2026-05-04 01:25 34.80370 -111.33436 33905 ft 347 kts 265°
2026-05-04 01:26 34.79881 -111.39272 33908 ft 346 kts 265°
2026-05-04 01:26 34.79392 -111.45087 33927 ft 345 kts 265°
2026-05-04 01:27 34.78900 -111.50888 33934 ft 344 kts 265°
2026-05-04 01:27 34.78408 -111.56670 33955 ft 343 kts 265°
2026-05-04 01:28 34.77917 -111.62410 33958 ft 343 kts 265°
2026-05-04 01:28 34.77420 -111.68176 33974 ft 342 kts 265°
2026-05-04 01:29 34.76921 -111.73934 33981 ft 342 kts 264°
2026-05-04 01:29 34.76421 -111.79687 33986 ft 341 kts 264°
2026-05-04 01:30 34.75920 -111.85413 33966 ft 340 kts 264°
2026-05-04 01:30 34.75416 -111.91136 33950 ft 340 kts 264°
2026-05-04 01:31 34.74914 -111.96802 33922 ft 339 kts 264°
2026-05-04 01:31 34.74408 -112.02493 33900 ft 338 kts 264°
2026-05-04 01:32 34.73899 -112.08183 33867 ft 337 kts 264°
2026-05-04 01:32 34.73388 -112.13853 33879 ft 337 kts 264°
2026-05-04 01:33 34.72877 -112.19517 33903 ft 337 kts 264°
2026-05-04 01:33 34.72362 -112.25187 33942 ft 338 kts 264°
2026-05-04 01:34 34.71843 -112.30863 33975 ft 338 kts 264°
2026-05-04 01:34 34.71321 -112.36547 33996 ft 338 kts 264°
2026-05-04 01:35 34.70799 -112.42196 33998 ft 338 kts 264°
2026-05-04 01:35 34.70139 -112.47869 33998 ft 339 kts 260°
2026-05-04 01:36 34.68845 -112.53410 34000 ft 341 kts 255°
2026-05-04 01:36 34.67397 -112.58892 33973 ft 340 kts 256°
2026-05-04 01:37 34.65960 -112.64370 33949 ft 340 kts 256°
2026-05-04 01:37 34.64531 -112.69797 33907 ft 342 kts 256°
2026-05-04 01:38 34.63046 -112.75429 33876 ft 357 kts 256°
2026-05-04 01:38 34.61513 -112.81207 33833 ft 358 kts 255°
2026-05-04 01:39 34.60244 -112.85973 33804 ft 355 kts 255°
2026-05-04 01:39 34.58722 -112.91687 33805 ft 356 kts 255°
2026-05-04 01:40 34.57200 -112.97405 33804 ft 355 kts 255°
2026-05-04 01:40 34.55678 -113.03106 33790 ft 355 kts 255°
2026-05-04 01:41 34.54155 -113.08797 33792 ft 354 kts 255°
2026-05-04 01:41 34.52630 -113.14482 33783 ft 355 kts 255°
2026-05-04 01:42 34.51102 -113.20171 33776 ft 353 kts 255°
2026-05-04 01:42 34.49575 -113.25845 33770 ft 355 kts 255°
2026-05-04 01:43 34.48048 -113.31500 33757 ft 352 kts 255°
2026-05-04 01:43 34.46522 -113.37146 33758 ft 352 kts 255°
2026-05-04 01:44 34.45007 -113.42737 33759 ft 351 kts 255°
2026-05-04 01:44 34.43481 -113.48360 33754 ft 351 kts 255°
2026-05-04 01:45 34.41956 -113.53966 33747 ft 349 kts 255°
2026-05-04 01:45 34.39670 -113.62345 33754 ft 352 kts 255°
2026-05-04 01:46 34.38142 -113.67934 33740 ft 348 kts 255°
2026-05-04 01:46 34.36616 -113.73502 33746 ft 348 kts 255°
2026-05-04 01:47 34.35089 -113.79061 33740 ft 348 kts 255°
2026-05-04 01:47 34.33564 -113.84604 33738 ft 347 kts 255°
2026-05-04 01:48 34.32035 -113.90149 33735 ft 347 kts 255°
2026-05-04 01:48 34.30665 -113.95680 33735 ft 344 kts 264°
2026-05-04 01:49 34.30674 -113.98564 33729 ft 345 kts 276°
2026-05-04 01:49 34.30959 -114.01435 33728 ft 343 kts 268°
2026-05-04 01:49 34.30630 -114.04290 33725 ft 345 kts 256°
2026-05-04 01:49 34.29643 -114.06969 33724 ft 353 kts 244°
2026-05-04 01:50 34.26709 -114.11803 33724 ft 354 kts 245°
2026-05-04 01:50 34.24635 -114.17115 33733 ft 348 kts 253°
2026-05-04 01:51 34.23012 -114.22599 33720 ft 346 kts 255°
2026-05-04 01:51 34.21493 -114.28061 33714 ft 344 kts 255°
2026-05-04 01:52 34.19967 -114.33541 33710 ft 344 kts 255°
2026-05-04 01:52 34.18435 -114.39006 33515 ft 342 kts 255°
2026-05-04 01:53 34.17667 -114.41752 32589 ft 349 kts 254°
2026-05-04 01:53 34.16870 -114.44610 30969 ft 370 kts 253°
2026-05-04 01:53 34.16024 -114.47647 29240 ft 393 kts 252°
2026-05-04 01:53 34.15130 -114.50827 27890 ft 404 kts 252°
2026-05-04 01:54 34.14230 -114.54011 27295 ft 396 kts 252°
2026-05-04 01:54 34.13346 -114.57133 26676 ft 390 kts 252°
2026-05-04 01:54 34.12491 -114.60153 26261 ft 380 kts 252°
2026-05-04 01:54 34.11641 -114.63151 26012 ft 366 kts 252°
2026-05-04 01:55 34.10838 -114.65980 25769 ft 356 kts 251°
2026-05-04 01:55 34.09927 -114.68759 25537 ft 359 kts 247°
2026-05-04 01:55 34.08781 -114.71467 25305 ft 363 kts 244°
2026-05-04 01:55 34.07589 -114.74144 25066 ft 361 kts 244°
2026-05-04 01:56 34.06410 -114.76811 24836 ft 360 kts 244°
2026-05-04 01:56 34.05234 -114.79476 24603 ft 359 kts 244°
2026-05-04 01:56 34.04058 -114.82140 24367 ft 359 kts 244°
2026-05-04 01:56 34.02886 -114.84791 24148 ft 358 kts 244°
2026-05-04 01:57 34.01716 -114.87436 23922 ft 357 kts 244°
2026-05-04 01:57 34.00547 -114.90076 23760 ft 357 kts 244°
2026-05-04 01:57 33.99388 -114.92689 23738 ft 357 kts 244°
2026-05-04 01:57 33.98214 -114.95334 23731 ft 357 kts 244°
2026-05-04 01:58 33.97041 -114.97975 23742 ft 357 kts 244°
2026-05-04 01:58 33.95864 -115.00622 23741 ft 357 kts 244°
2026-05-04 01:58 33.94687 -115.03260 23742 ft 358 kts 243°
2026-05-04 01:58 33.93504 -115.05900 23747 ft 359 kts 243°
2026-05-04 01:59 33.92335 -115.08505 23747 ft 358 kts 243°
2026-05-04 01:59 33.91155 -115.11136 23748 ft 358 kts 244°
2026-05-04 01:59 33.89972 -115.13773 23749 ft 358 kts 244°
2026-05-04 01:59 33.88789 -115.16407 23752 ft 358 kts 244°
2026-05-04 02:00 33.87606 -115.19039 23756 ft 358 kts 244°
2026-05-04 02:00 33.86421 -115.21676 23759 ft 358 kts 244°
2026-05-04 02:00 33.85235 -115.24313 23761 ft 358 kts 244°
2026-05-04 02:00 33.84049 -115.26946 23760 ft 358 kts 244°
2026-05-04 02:01 33.82862 -115.29582 23761 ft 359 kts 244°
2026-05-04 02:01 33.81674 -115.32216 23765 ft 358 kts 244°
2026-05-04 02:01 33.80487 -115.34847 23760 ft 358 kts 244°
2026-05-04 02:01 33.79300 -115.37475 23766 ft 358 kts 244°
2026-05-04 02:02 33.78113 -115.40101 23766 ft 358 kts 244°
2026-05-04 02:02 33.76924 -115.42732 23768 ft 358 kts 244°
2026-05-04 02:02 33.75736 -115.45356 23764 ft 357 kts 244°
2026-05-04 02:02 33.74549 -115.47978 23766 ft 357 kts 244°
2026-05-04 02:03 33.73367 -115.50588 23773 ft 357 kts 244°
2026-05-04 02:03 33.72178 -115.53210 23764 ft 357 kts 244°
2026-05-04 02:03 33.71006 -115.55843 23761 ft 357 kts 244°
2026-05-04 02:03 33.69852 -115.58472 23758 ft 356 kts 244°
2026-05-04 02:04 33.68698 -115.61110 23761 ft 356 kts 244°
2026-05-04 02:04 33.67545 -115.63737 23764 ft 356 kts 244°
2026-05-04 02:04 33.66389 -115.66365 23758 ft 355 kts 244°
2026-05-04 02:04 33.65234 -115.68982 23761 ft 355 kts 244°
2026-05-04 02:05 33.64078 -115.71598 23758 ft 355 kts 244°
2026-05-04 02:05 33.62936 -115.74182 23755 ft 355 kts 244°
2026-05-04 02:05 33.61714 -115.76756 23757 ft 356 kts 240°
2026-05-04 02:05 33.60307 -115.79213 23756 ft 356 kts 238°
2026-05-04 02:06 33.58893 -115.81651 23758 ft 356 kts 238°
2026-05-04 02:06 33.57484 -115.84090 23751 ft 355 kts 238°
2026-05-04 02:06 33.56078 -115.86526 23756 ft 355 kts 238°
2026-05-04 02:06 33.54675 -115.88956 23750 ft 355 kts 238°
2026-05-04 02:07 33.53271 -115.91385 23753 ft 354 kts 238°
2026-05-04 02:07 33.51868 -115.93812 23753 ft 354 kts 238°
2026-05-04 02:07 33.50465 -115.96235 23754 ft 354 kts 238°
2026-05-04 02:07 33.49062 -115.98657 23755 ft 353 kts 238°
2026-05-04 02:08 33.47659 -116.01078 23739 ft 353 kts 238°
2026-05-04 02:08 33.46272 -116.03468 23693 ft 345 kts 238°
2026-05-04 02:08 33.44910 -116.05813 23546 ft 342 kts 238°
2026-05-04 02:08 33.43546 -116.08165 23319 ft 346 kts 238°
2026-05-04 02:09 33.42173 -116.10531 23071 ft 345 kts 238°
2026-05-04 02:09 33.40819 -116.12857 22979 ft 335 kts 238°
2026-05-04 02:09 33.39510 -116.15103 22871 ft 323 kts 238°
2026-05-04 02:09 33.38252 -116.17264 22786 ft 310 kts 238°
2026-05-04 02:10 33.37043 -116.19336 22686 ft 299 kts 238°
2026-05-04 02:10 33.35889 -116.21318 22479 ft 289 kts 238°
2026-05-04 02:10 33.34697 -116.23273 22179 ft 286 kts 233°
2026-05-04 02:10 33.33301 -116.24912 21866 ft 284 kts 224°
2026-05-04 02:11 33.31653 -116.26252 21352 ft 292 kts 215°
2026-05-04 02:11 33.29816 -116.27322 20927 ft 293 kts 212°
2026-05-04 02:11 33.27986 -116.28381 20514 ft 292 kts 212°
2026-05-04 02:11 33.26162 -116.29448 20081 ft 291 kts 212°
2026-05-04 02:12 33.24282 -116.30561 19645 ft 318 kts 212°
2026-05-04 02:12 33.22207 -116.31796 19240 ft 345 kts 211°
2026-05-04 02:12 33.20009 -116.33087 19152 ft 353 kts 211°
2026-05-04 02:12 33.17801 -116.34370 18932 ft 353 kts 211°
2026-05-04 02:13 33.15582 -116.35660 18367 ft 357 kts 210°
2026-05-04 02:13 33.13350 -116.36960 17752 ft 356 kts 210°
2026-05-04 02:13 33.11128 -116.38255 17082 ft 355 kts 210°
2026-05-04 02:13 33.08905 -116.39554 16310 ft 357 kts 210°
2026-05-04 02:14 33.06696 -116.40844 15809 ft 352 kts 210°
2026-05-04 02:14 33.04533 -116.42105 15242 ft 349 kts 209°
2026-05-04 02:14 33.02350 -116.43378 14654 ft 347 kts 210°
2026-05-04 02:14 33.00283 -116.44823 14160 ft 342 kts 217°
2026-05-04 02:15 32.98447 -116.46541 13944 ft 331 kts 223°
2026-05-04 02:15 32.96634 -116.48399 13908 ft 357 kts 222°
2026-05-04 02:15 32.94699 -116.50359 13888 ft 370 kts 222°
2026-05-04 02:15 32.92731 -116.52342 13873 ft 368 kts 222°
2026-05-04 02:16 32.90787 -116.54297 13588 ft 364 kts 222°
2026-05-04 02:16 32.88862 -116.56232 13117 ft 359 kts 222°
2026-05-04 02:16 32.86964 -116.58141 12486 ft 356 kts 222°
2026-05-04 02:16 32.85118 -116.59999 12093 ft 347 kts 222°
2026-05-04 02:17 32.83317 -116.61809 11929 ft 331 kts 222°
2026-05-04 02:17 32.81598 -116.63539 11816 ft 316 kts 222°
2026-05-04 02:17 32.79957 -116.65188 11677 ft 302 kts 222°
2026-05-04 02:17 32.78449 -116.66757 11582 ft 288 kts 226°
2026-05-04 02:18 32.77160 -116.68511 11485 ft 275 kts 234°
2026-05-04 02:18 32.76151 -116.70379 11347 ft 263 kts 240°
2026-05-04 02:18 32.75276 -116.72265 11065 ft 258 kts 240°
2026-05-04 02:18 32.74397 -116.74131 10661 ft 258 kts 240°
2026-05-04 02:19 32.73518 -116.75988 10287 ft 257 kts 240°
2026-05-04 02:19 32.72638 -116.77843 9896 ft 257 kts 240°
2026-05-04 02:19 32.71763 -116.79686 9521 ft 255 kts 240°
2026-05-04 02:19 32.70901 -116.81523 9235 ft 250 kts 242°
2026-05-04 02:20 32.70238 -116.83402 8869 ft 251 kts 248°
2026-05-04 02:20 32.69635 -116.85371 8500 ft 250 kts 248°
2026-05-04 02:20 32.69052 -116.87255 8340 ft 240 kts 248°
2026-05-04 02:20 32.68493 -116.89070 8230 ft 228 kts 248°
2026-05-04 02:21 32.67978 -116.90809 8141 ft 217 kts 249°
2026-05-04 02:21 32.67491 -116.92497 7788 ft 216 kts 252°
2026-05-04 02:21 32.67376 -116.94237 7617 ft 206 kts 273°
2026-05-04 02:21 32.67723 -116.95868 7190 ft 201 kts 282°
2026-05-04 02:22 32.68121 -116.97456 6498 ft 202 kts 282°
2026-05-04 02:22 32.68508 -116.99049 5857 ft 198 kts 283°
2026-05-04 02:22 32.68872 -117.00541 5571 ft 181 kts 283°
2026-05-04 02:22 32.69216 -117.01987 4902 ft 181 kts 284°
2026-05-04 02:23 32.69534 -117.03391 4232 ft 172 kts 284°
2026-05-04 02:23 32.69826 -117.04725 3782 ft 160 kts 284°
2026-05-04 02:23 32.70110 -117.05966 3322 ft 153 kts 284°
2026-05-04 02:23 32.70403 -117.07164 2885 ft 148 kts 285°
2026-05-04 02:24 32.70709 -117.08320 2493 ft 143 kts 286°
2026-05-04 02:24 32.71006 -117.09423 2138 ft 139 kts 285°
2026-05-04 02:24 32.71273 -117.10493 1846 ft 132 kts 284°
2026-05-04 02:24 32.71530 -117.11521 1570 ft 129 kts 287°
2026-05-04 02:25 32.71794 -117.12531 1356 ft 129 kts 286°
2026-05-04 02:25 32.72042 -117.13591 990 ft 134 kts 284°
2026-05-04 02:25 32.72302 -117.14647 712 ft 131 kts 284°
2026-05-04 02:25 32.72554 -117.15659 502 ft 121 kts 285°
2026-05-04 02:26 32.72703 -117.16277 388 ft 115 kts 286°
2026-05-04 02:26 32.72994 -117.17478 142 ft 126 kts 286°
2026-05-04 02:26 32.73156 -117.18139 42 ft 123 kts 285°
2026-05-04 02:26 32.73358 -117.18964 25 ft 67 kts 287°
2026-05-04 02:27 32.73414 -117.19200 23 ft 17 kts 285°
2026-05-04 02:27 32.73445 -117.19405 26 ft 27 kts 263°
2026-05-04 02:27 32.73408 -117.19547 27 ft 0 kts 250°
2026-05-04 02:28 32.73407 -117.19550 27 ft 1 kts 250°
2026-05-04 02:28 32.73406 -117.19554 27 ft 0 kts 251°
2026-05-04 02:29 32.73408 -117.19614 30 ft 18 kts 283°
2026-05-04 02:29 32.73380 -117.19702 29 ft 8 kts 199°
2026-05-04 02:29 32.73326 -117.19747 25 ft 4 kts 272°
2026-05-04 02:29 32.73329 -117.19750 26 ft 0 kts 301°
2026-05-04 02:30 32.73333 -117.19759 25 ft 3 kts 294°
2026-05-04 02:30 32.73338 -117.19778 26 ft 0 kts 284°